This is the latest recevied weather packets stored in our database for station/object HS2LXA-13. If no packets are shown the sender has not sent any weather packets the latest 10 day(s).
| Time | Temp. | Humidity | Pressure | Rain* | Wind** | Luminosity | Snow |
|---|---|---|---|---|---|---|---|
| 1777597871 | 27.22° C | 86% | 1012.4 hPa | 2.29 mm | - | 0 W/m² | - |
| 1777597267 | 27.22° C | 87% | 1012.6 hPa | 2.29 mm | - | 0 W/m² | - |
| 1777596671 | 27.22° C | 86% | 1012.4 hPa | 2.29 mm | - | 0 W/m² | - |
| 1777596064 | 27.22° C | 84% | 1012.3 hPa | 2.29 mm | - | 0 W/m² | - |
| 1777595462 | 27.22° C | 85% | 1012.1 hPa | 2.29 mm | - | 0 W/m² | - |
| 1777594861 | 27.22° C | 85% | 1012 hPa | 2.29 mm | - | 0 W/m² | - |
| 1777594255 | 26.67° C | 85% | 1011.8 hPa | 2.29 mm | - | 0 W/m² | - |
| 1777593653 | 27.22° C | 87% | 1011.6 hPa | 2.29 mm | - | 0 W/m² | - |
| 1777593053 | 26.67° C | 85% | 1011 hPa | 2.29 mm | - | 0 W/m² | - |
| 1777592453 | 27.22° C | 86% | 1010.9 hPa | 2.03 mm | - | 0 W/m² | - |
| 1777591851 | 26.67° C | 85% | 1010.6 hPa | 0.76 mm | - | 0 W/m² | - |
| 1777591251 | 27.78° C | 84% | 1010.4 hPa | 0 mm | - | 0 W/m² | - |
| 1777590649 | 27.78° C | 85% | 1010.3 hPa | 0 mm | - | 0 W/m² | - |
| 1777590047 | 27.78° C | 85% | 1010.3 hPa | 0 mm | - | 0 W/m² | - |
| 1777589447 | 27.78° C | 85% | 1010 hPa | 0 mm | - | 0 W/m² | - |
| 1777588845 | 27.78° C | 85% | 1009.7 hPa | 0 mm | - | 0 W/m² | - |
| 1777588243 | 27.78° C | 85% | 1009.5 hPa | 0 mm | - | 0 W/m² | - |
| 1777587639 | 27.78° C | 85% | 1009.5 hPa | 0 mm | - | 0 W/m² | - |
| 1777587039 | 27.78° C | 87% | 1009.3 hPa | 0 mm | - | 0 W/m² | - |
| 1777586444 | 27.78° C | 84% | 1009.2 hPa | 0 mm | - | 0 W/m² | - |
| 1777585837 | 27.78° C | 85% | 1009.2 hPa | 0 mm | - | 0 W/m² | - |
| 1777585235 | 27.78° C | 83% | 1009.2 hPa | 0 mm | - | 0 W/m² | - |
| 1777584632 | 28.33° C | 84% | 1009.1 hPa | 0 mm | - | 0 W/m² | - |
| 1777584031 | 28.33° C | 84% | 1008.9 hPa | 0 mm | - | 0 W/m² | - |
| 1777583432 | 28.89° C | 82% | 1008.9 hPa | 0 mm | - | 0 W/m² | - |
* Rain latest hour (hover to see other rain measurements)
** Current wind speed in m/s (hover to see current wind gust speed)